DW4685 Weather Reports


time (UTC)temp
F
wind
direction
speed
knots
gust
knots
rain 1hr
in
rain 24hr
in
rain mn
in
humidity
%
barometer
mb
20260504034504 63 262 4.3 11.3 0.00 0.00 0.00 47 991.5
20260504033004 63 267 5.2 14.8 0.00 0.00 0.00 47 991.9
20260504031503 64 251 4.3 13.0 0.00 0.00 0.00 48 992.1
20260504030004 64 239 5.2 21.7 0.00 0.00 0.00 43 992.2
20260504024718 64 218 3.5 10.4 0.00 0.00 0.00 43 992.2
20260504023003 64 217 3.5 9.6 0.00 0.00 0.00 43 992.5
20260504021504 63 222 3.5 15.6 0.00 0.00 0.00 43 993.3
20260504020004 63 207 2.6 6.1 0.00 0.00 0.00 43 993.9
20260504014503 64 260 1.7 6.1 0.00 0.00 0.00 41 994.2
20260504013003 64 212 3.5 12.2 0.00 0.00 0.00 40 994.7
20260504011503 64 240 3.5 9.6 0.00 0.00 0.00 41 995.0
20260504010004 64 233 5.2 13.0 0.00 0.00 0.00 42 995.1
20260504004503 63 247 3.5 14.8 0.00 0.00 0.00 44 995.8
20260504003004 64 275 7.0 15.6 0.00 0.00 0.00 43 996.2
20260504001503 64 231 4.3 10.4 0.00 0.00 0.00 37 996.5
20260504000003 64 220 2.6 9.6 0.00 0.00 0.00 37 996.3
20260503234503 65 197 3.5 13.0 0.00 0.00 0.00 36 996.5
20260503233004 65 186 3.5 10.4 0.00 0.00 0.00 36 997.0
20260503231505 65 207 3.5 13.0 0.00 0.00 0.00 37 997.4
20260503230004 65 196 3.5 10.4 0.00 0.00 0.00 37 997.7
20260503224717 66 213 4.3 11.3 0.00 0.00 0.00 35 998.1
20260503223004 67 243 5.2 19.1 0.00 0.00 0.00 33 998.5
20260503221719 68 244 4.3 13.0 0.00 0.00 0.00 32 998.7
20260503220003 67 246 4.3 16.5 0.00 0.00 0.00 34 999.0
20260503214503 67 236 4.3 13.0 0.00 0.00 0.00 34 999.5
20260503213003 68 245 3.5 12.2 0.00 0.00 0.00 33 999.7
20260503211503 68 276 5.2 13.0 0.00 0.00 0.00 33 1000.1
20260503210004 66 272 5.2 13.9 0.00 0.00 0.00 35 1000.5
20260503204503 66 275 6.1 19.1 0.00 0.00 0.00 34 1000.9
20260503203217 67 287 7.8 17.4 0.00 0.00 0.00 34 1001.1
20260503201718 66 291 7.8 16.5 0.00 0.00 0.00 35 1001.5
20260503200003 65 287 7.8 18.2 0.00 0.00 0.00 34 1001.8
20260503194503 65 267 6.1 13.0 0.00 0.00 0.00 36 1002.1
20260503193004 64 278 5.2 12.2 0.00 0.00 0.00 37 1002.3
20260503191504 62 276 6.1 13.9 0.00 0.00 0.00 38 1002.8
20260503190005 61 288 6.1 15.6 0.00 0.00 0.00 38 1003.1
20260503184718 61 287 8.7 20.0 0.00 0.00 0.00 38 1003.3
20260503183003 60 290 8.7 17.4 0.00 0.00 0.00 37 1003.7
20260503181504 61 284 7.8 18.2 0.00 0.00 0.00 37 1003.8
20260503180005 61 293 6.1 14.8 0.00 0.00 0.00 37 1004.2
20260503174504 59 291 7.0 16.5 0.00 0.00 0.00 38 1004.5
20260503173003 59 286 7.8 13.9 0.00 0.00 0.00 39 1004.6
20260503171503 59 302 7.0 13.9 0.00 0.00 0.00 38 1004.7
20260503150217 53 299 6.1 15.6 0.00 0.00 0.00 43 1005.8
20260503140217 49 295 5.2 13.9 0.00 0.00 0.00 57 1006.2
20260503100217 30 291 0.9 5.2 0.00 0.00 0.00 90 1004.9
20260503071504 34 0 0.0 0.0 0.00 0.00 0.00 88 1005.6
20260503070218 35 0 0.0 0.0 0.00 0.00 0.00 88 1005.6
20260503060218 37 0 0.0 0.0 0.00 0.00 0.00 88 1005.8
20260503054503 38 0 0.0 0.0 0.00 0.00 0.00 87 1005.9
20260503053003 38 0 0.0 0.0 0.00 0.00 0.00 87 1006.0
20260503051504 39 0 0.0 0.0 0.00 0.00 0.00 87 1006.0
20260503050004 39 0 0.0 0.0 0.00 0.00 0.00 85 1006.0
20260503044504 40 0 0.0 0.0 0.00 0.00 0.00 85 1006.2
20260503043217 41 0 0.0 0.0 0.00 0.00 0.00 85 1006.2
20260503041504 42 0 0.0 0.0 0.00 0.00 0.00 83 1006.3
20260503040004 43 0 0.0 0.0 0.00 0.00 0.00 82 1006.4